Home > Weather > Dordrecht > Past weeks

Flag for Netherlands Past Weather in Dordrecht, Netherlands — Yesterday and Last 2 Weeks

Now
55 °F

Clear.


Feels Like: 55 °F
Forecast: 50 / 67 °F
Wind: No wind

Location: Rotterdam Zestienhoven Airport

Current Time: Jun 28, 2016 at 12:13:26 AM

Latest Report: Jun 27, 2016 at 11:25 PM


Visibility: N/A

Pressure: 30.09 "Hg

Humidity: 88%

Dew Point: 52 °F

Location of DordrechtLocation

Past Weather in Dordrecht — Graph

°F

Dordrecht Temperature Yesterday

Maximum temperature yesterday: 64 °F (at 5:25 PM)
Minimum temperature yesterday: 57 °F (at 10:55 PM)
Average temperature yesterday: 61 °F

High & Low Weather Summary for the Past Weeks

 TemperatureHumidityPressure
High81 °F (Jun 23, 4:25 PM)100% (Jun 12, 11:55 PM)30.27 "Hg (Jun 12, 11:55 PM)
Low50 °F (Jun 16, 5:25 AM)53% (Jun 16, 12:25 PM)29.45 "Hg (Jun 14, 11:55 AM)
Average61 °F85%29.88 "Hg
* Reported Jun 12 10:25 PM — Jun 27 10:55 PM, Dordrecht, Weather by CustomWeather, © 2016

Note: Actual official high and low records may vary slightly from our data, if they occured in-between our weather recording intervals... More about our weather records

Advertising

Dordrecht Weather History for the Previous 24 Hours

Scroll right to see more
 ConditionsComfort  
Time TempWeatherWind HumidityBarometerVisibility
10:55 PM
Mon, Jun 27
57 °FClear.3 mph77%30.09 "HgN/A
10:25 PM59 °FClear.2 mph72%30.09 "HgN/A
9:55 PM59 °FCool.3 mph77%30.09 "HgN/A
9:25 PM59 °FCool.5 mph77%30.07 "HgN/A
8:55 PM63 °FMild.5 mph68%30.07 "HgN/A
8:25 PM63 °FClear.5 mph64%30.07 "HgN/A
7:55 PM64 °FPassing clouds.6 mph60%30.07 "HgN/A
7:25 PM64 °FClear.7 mph60%30.07 "HgN/A
6:55 PM64 °FPassing clouds.8 mph64%30.07 "HgN/A
6:25 PM64 °FScattered clouds.7 mph64%30.07 "HgN/A
5:55 PM64 °FClear.7 mph68%30.07 "HgN/A
5:25 PM64 °FPassing clouds.8 mph68%30.04 "HgN/A
4:55 PM63 °FClear.8 mph73%30.04 "HgN/A
4:25 PM63 °FPassing clouds.9 mph73%30.04 "HgN/A
3:55 PM63 °FMostly cloudy.10 mph77%30.04 "HgN/A
3:25 PM63 °FCloudy.9 mph77%30.04 "HgN/A
2:55 PM63 °FMostly cloudy.9 mph88%30.01 "HgN/A
2:25 PM63 °FMore clouds than sun.9 mph88%30.01 "HgN/A
1:55 PM63 °FPartly sunny.8 mph88%30.01 "HgN/A
1:25 PM61 °FDrizzle. Partly sunny.12 mph94%30.01 "Hg3 mi
12:55 PM63 °FBroken clouds.9 mph94%30.01 "HgN/A
12:25 PM61 °FRain showers. Broken clouds.12 mph100%30.01 "Hg2 mi
11:55 AM61 °FDrizzle. Broken clouds.13 mph94%29.98 "Hg4 mi
11:25 AM61 °FCloudy.14 mph94%29.98 "Hg6 mi
10:55 AM61 °FOvercast.16 mph88%29.98 "HgN/A
10:25 AM61 °FOvercast.13 mph88%29.98 "HgN/A
9:55 AM61 °FOvercast.16 mph88%29.98 "HgN/A
9:25 AM59 °FOvercast.14 mph88%29.98 "HgN/A
8:55 AM59 °FMore clouds than sun.14 mph94%29.98 "HgN/A
8:25 AM59 °FOvercast.14 mph88%29.98 "HgN/A
7:55 AM59 °FOvercast.14 mph88%29.98 "HgN/A
7:25 AM59 °FMostly cloudy.10 mph88%29.98 "HgN/A
6:55 AM59 °FMostly cloudy.14 mph88%30.01 "Hg4 mi
6:25 AM59 °FDrizzle. Cloudy.13 mph88%30.01 "HgN/A
5:55 AM59 °FPassing clouds.15 mph88%30.01 "HgN/A
5:25 AM59 °FPartly cloudy.10 mph88%30.01 "HgN/A
4:55 AM59 °FOvercast.12 mph88%30.01 "HgN/A
4:25 AM59 °FPassing clouds.10 mph88%30.01 "HgN/A
3:55 AM59 °FPassing clouds.13 mph88%30.01 "HgN/A
3:25 AM59 °FPassing clouds.13 mph88%30.01 "HgN/A
2:55 AM59 °FPassing clouds.13 mph88%30.01 "HgN/A
2:25 AM59 °FPassing clouds.15 mph88%30.01 "HgN/A
1:55 AM61 °FClear.14 mph77%30.01 "HgN/A
1:25 AM61 °FPassing clouds.13 mph77%30.01 "HgN/A
12:55 AM61 °FClear.14 mph77%30.01 "HgN/A
12:25 AM61 °FClear.14 mph83%30.01 "HgN/A
Weather by CustomWeather, © 2016

See weather overviewHow to use our weather pages